Litchfield, MN

6:19 PM CST on November 21, 2019 (GMT -0600)
Litchfield Municipal

Weather History for KLJF - October, 2019

Change the Weather History Date:

Monday, October 21, 2019

  Actual Average Record
Temperature  
Mean Temperature 48 °F -  
Max Temperature 55 °F 57 °F 79 °F (1953)
Min Temperature 41 °F 36 °F 21 °F (1982)
Degree Days  
Heating Degree Days 17    
Moisture  
Dew Point 45 °F    
Average Humidity 92    
Maximum Humidity 100    
Minimum Humidity 62    
Precipitation  
Precipitation 0.00 in - - ()
Sea Level Pressure  
Sea Level Pressure 29.34 in    
Wind  
Wind Speed 14 mph ()    
Max Wind Speed 29 mph    
Max Gust Speed 40 mph    
Visibility 8.4 miles    
Events Rain    
Averages and records for this station are not official NWS values.
T = Trace of Precipitation, MM = Missing Value Source: Averaged Metar Reports

Daily Weather History Graph

Daily Weather History Graph

Search for Another Location

Airport or City:

Astronomy

Oct. 21, 2019 Rise Set
Actual Time 7:41 AM CDT 6:23 PM CDT
Civil Twilight 7:11 AM CDT 6:53 PM CDT
Nautical Twilight 6:37 AM CDT 7:27 PM CDT
Astronomical Twilight 6:03 AM CDT 8:01 PM CDT
Moon No Moon Rise 3:09 PM CDT (10/21)
Length of Visible Light 11h 41m
Length of Day
10h 41m
Waning Gibbous, 48% of the Moon is Illuminated
Oct 21
Waning Gibbous
Oct 27
New
Nov 4
First Quarter
Nov 12
Full
Nov 19
Last Quarter

Hourly Weather History & Observations

Time (CDT) Temp. Windchill Dew Point Humidity Pressure Visibility Wind Dir Wind Speed Gust Speed Precip Events Conditions
12:15 AM 55.4 °F - 44.6 °F 67% 29.71 in 10.0 mi ESE 13.8 mph 18.4 mph N/A Rain Light Rain
12:16 AM 55.4 °F - 44.6 °F 67% 29.71 in 10.0 mi ESE 13.8 mph - N/A Rain Light Rain
12:35 AM 55.4 °F - 44.6 °F 67% 29.70 in 10.0 mi ESE 11.5 mph - N/A   Overcast
12:39 AM 55.4 °F - 44.6 °F 67% 29.70 in 10.0 mi ESE 12.7 mph - N/A   Overcast
12:58 AM 55.4 °F - 44.6 °F 67% 29.69 in 10.0 mi ESE 12.7 mph - N/A   Mostly Cloudy
1:15 AM 55.4 °F - 44.6 °F 67% 29.65 in 10.0 mi East 10.4 mph - N/A   Mostly Cloudy
1:35 AM 55.4 °F - 44.6 °F 67% 29.65 in 10.0 mi ESE 11.5 mph 16.1 mph N/A   Mostly Cloudy
1:36 AM 55.4 °F - 44.6 °F 67% 29.65 in 10.0 mi ESE 11.5 mph 16.1 mph N/A   Mostly Cloudy
1:55 AM 55.4 °F - 44.6 °F 67% 29.65 in 10.0 mi ESE 12.7 mph - N/A   Overcast
2:18 AM 55.4 °F - 44.6 °F 67% 29.62 in 10.0 mi ESE 12.7 mph 17.3 mph N/A   Overcast
2:36 AM 55.4 °F - 44.6 °F 67% 29.61 in 10.0 mi East 13.8 mph - N/A   Overcast
2:56 AM 55.4 °F - 44.6 °F 67% 29.61 in 10.0 mi East 15.0 mph 19.6 mph N/A   Overcast
3:15 AM 55.4 °F - 46.4 °F 72% 29.60 in 10.0 mi ESE 12.7 mph - N/A   Overcast
3:16 AM 55.4 °F - 46.4 °F 72% 29.60 in 10.0 mi ESE 12.7 mph - N/A   Overcast
3:35 AM 55.4 °F - 46.4 °F 72% 29.58 in 10.0 mi ESE 15.0 mph - N/A Rain Rain
3:39 AM 53.6 °F - 46.4 °F 77% 29.58 in 10.0 mi East 16.1 mph 20.7 mph N/A   Drizzle
3:58 AM 53.6 °F - 46.4 °F 77% 29.56 in 10.0 mi East 15.0 mph - N/A Rain Light Rain
4:16 AM 53.6 °F - 46.4 °F 77% 29.53 in 10.0 mi East 20.7 mph 27.6 mph N/A Rain Light Rain
4:35 AM 53.6 °F - 44.6 °F 72% 29.53 in 10.0 mi East 16.1 mph 24.2 mph N/A   Overcast
4:36 AM 53.6 °F - 44.6 °F 72% 29.52 in 10.0 mi East 18.4 mph 24.2 mph N/A   Overcast
4:55 AM 53.6 °F - 42.8 °F 67% 29.53 in 10.0 mi ESE 9.2 mph - N/A   Overcast
4:56 AM 53.6 °F - 42.8 °F 67% 29.53 in 10.0 mi ESE 9.2 mph - N/A   Overcast
5:17 AM 53.6 °F - 41.0 °F 62% 29.52 in 10.0 mi ESE 19.6 mph 25.3 mph N/A Rain Light Rain
5:35 AM 53.6 °F - 42.8 °F 67% 29.50 in 10.0 mi East 17.3 mph 25.3 mph N/A   Light Drizzle
5:55 AM 51.8 °F - 42.8 °F 71% 29.49 in 10.0 mi East 17.3 mph 24.2 mph N/A   Overcast
6:15 AM 51.8 °F - 44.6 °F 76% 29.49 in 10.0 mi East 15.0 mph 19.6 mph N/A   Light Drizzle
6:39 AM 50.0 °F - 44.6 °F 82% 29.47 in 10.0 mi East 16.1 mph 23.0 mph N/A Rain Light Rain
6:57 AM 48.2 °F - 46.4 °F 93% 29.46 in 10.0 mi ENE 13.8 mph 23.0 mph N/A Rain Light Rain
7:16 AM 48.2 °F - 46.4 °F 93% 29.45 in 10.0 mi ENE 10.4 mph 23.0 mph N/A Rain Light Rain
7:35 AM 48.2 °F - 46.4 °F 93% 29.45 in 7.0 mi ENE 10.4 mph 20.7 mph N/A Rain Light Rain
7:36 AM 48.2 °F - 46.4 °F 93% 29.45 in 7.0 mi ENE 11.5 mph 17.3 mph N/A Rain Rain
7:55 AM 48.2 °F - 48.2 °F 100% 29.44 in 5.0 mi ENE 11.5 mph - N/A Rain Rain
7:59 AM 48.2 °F - 48.2 °F 100% 29.44 in 5.0 mi East 9.2 mph - N/A Rain Rain
8:16 AM 48.2 °F - 48.2 °F 100% 29.43 in 5.0 mi ENE 8.1 mph - N/A Rain Rain
8:35 AM 48.2 °F - 48.2 °F 100% 29.40 in 7.0 mi NE 13.8 mph 20.7 mph N/A Rain Rain
8:36 AM 48.2 °F - 48.2 °F 100% 29.40 in 7.0 mi NE 12.7 mph 20.7 mph N/A Rain Rain
8:55 AM 48.2 °F - 48.2 °F 100% 29.38 in 7.0 mi NE 15.0 mph 20.7 mph N/A Rain Light Rain
8:56 AM 48.2 °F - 48.2 °F 100% 29.38 in 7.0 mi NE 16.1 mph 20.7 mph N/A Rain Light Rain
9:15 AM 46.4 °F 39.5 °F 46.4 °F 100% 29.37 in 7.0 mi NE 17.3 mph 23.0 mph N/A Rain Light Rain
9:20 AM 46.4 °F 40.4 °F 46.4 °F 100% 29.37 in 7.0 mi ENE 13.8 mph 23.0 mph N/A Rain Light Rain
9:37 AM 46.4 °F 39.8 °F 46.4 °F 100% 29.37 in 5.0 mi NE 16.1 mph 20.7 mph N/A Rain Rain
9:56 AM 46.4 °F 41.1 °F 46.4 °F 100% 29.35 in 4.0 mi NE 11.5 mph 20.7 mph N/A Rain Rain
10:15 AM 46.4 °F 41.1 °F 46.4 °F 100% 29.34 in 5.0 mi NNE 11.5 mph - N/A Rain Rain
10:16 AM 46.4 °F 41.5 °F 46.4 °F 100% 29.35 in 5.0 mi NE 10.4 mph - N/A Rain Rain
10:35 AM 46.4 °F 40.4 °F 46.4 °F 100% 29.33 in 5.0 mi NE 13.8 mph 21.9 mph N/A Rain Rain
10:36 AM 46.4 °F 40.7 °F 46.4 °F 100% 29.33 in 5.0 mi NE 12.7 mph 21.9 mph N/A Rain Rain
10:58 AM 44.6 °F 38.8 °F 44.6 °F 100% 29.32 in 4.0 mi NE 11.5 mph 18.4 mph N/A Rain Rain
11:17 AM 44.6 °F 38.1 °F 44.6 °F 100% 29.29 in 5.0 mi NNE 13.8 mph 20.7 mph N/A Rain Rain
11:35 AM 44.6 °F 38.4 °F 44.6 °F 100% 29.28 in 10.0 mi NNE 12.7 mph 21.9 mph N/A Rain Light Rain
11:36 AM 44.6 °F 38.1 °F 44.6 °F 100% 29.28 in 10.0 mi NNE 13.8 mph 21.9 mph N/A Rain Light Rain
11:55 AM 46.4 °F 40.1 °F 46.4 °F 100% 29.25 in 10.0 mi NNE 15.0 mph 21.9 mph N/A Rain Light Rain
11:56 AM 46.4 °F 40.1 °F 46.4 °F 100% 29.25 in 10.0 mi NNE 15.0 mph 21.9 mph N/A Rain Light Rain
12:15 PM 46.4 °F 39.8 °F 46.4 °F 100% 29.24 in 10.0 mi NNE 16.1 mph 26.5 mph N/A Rain Light Rain
12:19 PM 46.4 °F 40.1 °F 46.4 °F 100% 29.24 in 10.0 mi NNE 15.0 mph - N/A Rain Light Rain
12:37 PM 46.4 °F 40.4 °F 46.4 °F 100% 29.22 in 10.0 mi NNE 13.8 mph 21.9 mph N/A Rain Light Rain
12:55 PM 46.4 °F 40.4 °F 46.4 °F 100% 29.20 in 5.0 mi North 13.8 mph 20.7 mph N/A Rain Rain
1:15 PM 46.4 °F 40.7 °F 46.4 °F 100% 29.19 in 7.0 mi North 12.7 mph 20.7 mph N/A Rain Light Rain
1:35 PM 46.4 °F 40.4 °F 46.4 °F 100% 29.17 in 7.0 mi North 13.8 mph 18.4 mph N/A Rain Light Rain
1:58 PM 46.4 °F 40.4 °F 46.4 °F 100% 29.16 in 7.0 mi North 13.8 mph 18.4 mph N/A Rain Light Rain
2:16 PM 46.4 °F 40.4 °F 46.4 °F 100% 29.14 in 5.0 mi North 13.8 mph - N/A Rain Light Rain
2:36 PM 46.4 °F 40.7 °F 46.4 °F 100% 29.13 in 7.0 mi North 12.7 mph 17.3 mph N/A Rain Light Rain
2:55 PM 46.4 °F 40.7 °F 46.4 °F 100% 29.12 in 10.0 mi North 12.7 mph 18.4 mph N/A Rain Light Rain
2:56 PM 46.4 °F 40.4 °F 46.4 °F 100% 29.12 in 10.0 mi NNW 13.8 mph 18.4 mph N/A Rain Light Rain
3:15 PM 46.4 °F 42.4 °F 46.4 °F 100% 29.12 in 7.0 mi North 8.1 mph 17.3 mph N/A Rain Light Rain
3:37 PM 46.4 °F 41.9 °F 46.4 °F 100% 29.13 in 5.0 mi North 9.2 mph - N/A Rain Rain
3:55 PM 46.4 °F 40.4 °F 46.4 °F 100% 29.13 in 5.0 mi North 13.8 mph - N/A Rain Rain
4:15 PM 46.4 °F 40.4 °F 46.4 °F 100% 29.13 in 7.0 mi North 13.8 mph - N/A Rain Rain
4:16 PM 46.4 °F 40.7 °F 46.4 °F 100% 29.13 in 7.0 mi North 12.7 mph - N/A Rain Rain
4:35 PM 46.4 °F 40.4 °F 46.4 °F 100% 29.12 in 5.0 mi NNW 13.8 mph 18.4 mph N/A Rain Light Rain
4:36 PM 46.4 °F 40.7 °F 46.4 °F 100% 29.12 in 7.0 mi NNW 12.7 mph 18.4 mph N/A Rain Rain
4:58 PM 46.4 °F 39.5 °F 46.4 °F 100% 29.12 in 7.0 mi NNW 17.3 mph - N/A Rain Light Rain
5:16 PM 46.4 °F 41.1 °F 46.4 °F 100% 29.12 in 7.0 mi NNW 11.5 mph 20.7 mph N/A Rain Rain
5:35 PM 46.4 °F 40.7 °F 46.4 °F 100% 29.12 in 7.0 mi NNW 12.7 mph 20.7 mph N/A Rain Rain
5:36 PM 46.4 °F 40.4 °F 46.4 °F 100% 29.12 in 7.0 mi NNW 13.8 mph - N/A Rain Light Rain
5:55 PM 46.4 °F 40.1 °F 46.4 °F 100% 29.12 in 10.0 mi NNW 15.0 mph 21.9 mph N/A Rain Light Rain
5:56 PM 46.4 °F 39.8 °F 46.4 °F 100% 29.12 in 10.0 mi NNW 16.1 mph 23.0 mph N/A Rain Light Rain
6:18 PM 46.4 °F 39.8 °F 46.4 °F 100% 29.12 in 10.0 mi NNW 16.1 mph 23.0 mph N/A Rain Light Rain
6:36 PM 46.4 °F 40.4 °F 46.4 °F 100% 29.12 in 10.0 mi NNW 13.8 mph 24.2 mph N/A Rain Light Rain
6:56 PM 46.4 °F 39.0 °F 46.4 °F 100% 29.13 in 10.0 mi NNW 19.6 mph 26.5 mph N/A Rain Light Rain
7:15 PM 46.4 °F 38.7 °F 46.4 °F 100% 29.14 in 10.0 mi NNW 20.7 mph 28.8 mph N/A Rain Light Rain
7:16 PM 46.4 °F 39.0 °F 46.4 °F 100% 29.14 in 10.0 mi NNW 19.6 mph 28.8 mph N/A Rain Light Rain
7:35 PM 46.4 °F 38.7 °F 46.4 °F 100% 29.15 in 10.0 mi NNW 20.7 mph 25.3 mph N/A Rain Light Rain
7:57 PM 44.6 °F 35.3 °F 44.6 °F 100% 29.16 in 7.0 mi NNW 26.5 mph 35.7 mph N/A Rain Rain
8:16 PM 44.6 °F 36.1 °F 44.6 °F 100% 29.18 in 7.0 mi NNW 21.9 mph 40.3 mph N/A Rain Light Rain
8:35 PM 42.8 °F 32.5 °F 42.8 °F 100% 29.19 in 10.0 mi NNW 28.8 mph 35.7 mph N/A   Overcast
8:36 PM 42.8 °F 32.9 °F 42.8 °F 100% 29.19 in 10.0 mi NNW 26.5 mph 35.7 mph N/A   Overcast
8:55 PM 42.8 °F 33.1 °F 42.8 °F 100% 29.20 in 10.0 mi NNW 25.3 mph 39.1 mph N/A   Overcast
8:59 PM 42.8 °F 33.5 °F 42.8 °F 100% 29.20 in 10.0 mi NNW 23.0 mph 39.1 mph N/A   Light Drizzle
9:17 PM 42.8 °F 33.5 °F 42.8 °F 100% 29.21 in 10.0 mi NNW 23.0 mph 39.1 mph N/A Rain Light Rain
9:35 PM 42.8 °F 32.7 °F 42.8 °F 100% 29.22 in 10.0 mi NNW 27.6 mph 38.0 mph N/A   Overcast
9:55 PM 42.8 °F 33.1 °F 42.8 °F 100% 29.24 in 10.0 mi NNW 25.3 mph 34.5 mph N/A   Overcast
10:15 PM 41.0 °F 30.5 °F 41.0 °F 100% 29.25 in 10.0 mi NNW 26.5 mph 39.1 mph N/A   Drizzle
10:19 PM 41.0 °F 30.5 °F 41.0 °F 100% 29.25 in 10.0 mi NNW 26.5 mph 39.1 mph N/A   Drizzle
10:37 PM 41.0 °F 31.6 °F 41.0 °F 100% 29.26 in 7.0 mi NNW 20.7 mph 34.5 mph N/A Rain Rain
10:55 PM 41.0 °F 31.1 °F 41.0 °F 100% 29.27 in 7.0 mi NNW 23.0 mph 33.4 mph N/A Rain Light Rain
11:15 PM 42.8 °F 33.1 °F 42.8 °F 100% 29.28 in 10.0 mi NNW 25.3 mph 34.5 mph N/A Rain Light Rain
11:16 PM 42.8 °F 33.1 °F 42.8 °F 100% 29.28 in 10.0 mi NNW 25.3 mph 34.5 mph N/A Rain Light Rain
11:35 PM 42.8 °F 32.7 °F 42.8 °F 100% 29.29 in 10.0 mi NNW 27.6 mph 34.5 mph N/A Rain Light Rain
11:58 PM 42.8 °F 33.8 °F 42.8 °F 100% 29.30 in 10.0 mi NNW 21.9 mph 34.5 mph N/A   Drizzle